TimeEST,TemperatureF,Dew PointF,Humidity,Sea Level PressureIn,VisibilityMPH,Wind Direction,Wind SpeedMPH,Gust SpeedMPH,PrecipitationIn,Events,Conditions,WindDirDegrees,DateUTC
12:53 AM,1.0,-5.1,75,29.93,10.0,Calm,Calm,-,N/A,,Clear,0,2013-01-04 05:53:00
1:53 AM,-0.9,-7.1,75,29.93,7.0,Calm,Calm,-,N/A,,Clear,0,2013-01-04 06:53:00
2:53 AM,-0.9,-7.1,75,29.91,9.0,Calm,Calm,-,N/A,,Clear,0,2013-01-04 07:53:00
3:53 AM,-2.0,-8.0,76,29.90,10.0,Calm,Calm,-,N/A,,Clear,0,2013-01-04 08:53:00
4:53 AM,-0.9,-7.1,75,29.89,10.0,Calm,Calm,-,N/A,,Clear,0,2013-01-04 09:53:00
5:53 AM,-0.9,-6.0,79,29.89,10.0,Calm,Calm,-,N/A,,Clear,0,2013-01-04 10:53:00
6:53 AM,-0.0,-6.0,76,29.91,10.0,Calm,Calm,-,N/A,,Clear,0,2013-01-04 11:53:00
8:53 AM,10.9,6.1,81,29.87,8.0,Calm,Calm,-,N/A,,Mostly Cloudy,0,2013-01-04 13:53:00
9:53 AM,14.0,9.0,80,29.87,10.0,Calm,Calm,-,N/A,,Mostly Cloudy,0,2013-01-04 14:53:00
10:53 AM,21.0,15.1,78,29.83,10.0,Calm,Calm,-,N/A,,Overcast,0,2013-01-04 15:53:00
11:53 AM,32.0,21.0,64,29.77,10.0,SW,12.7,20.7,N/A,,Partly Cloudy,230,2013-01-04 16:53:00
12:53 PM,30.9,19.9,64,29.74,10.0,SW,6.9,20.7,N/A,,Clear,230,2013-01-04 17:53:00
1:53 PM,30.9,21.0,67,29.74,10.0,WSW,6.9,-,N/A,,Clear,240,2013-01-04 18:53:00
2:53 PM,32.0,21.0,64,29.75,10.0,Variable,5.8,-,N/A,,Clear,0,2013-01-04 19:53:00
3:53 PM,32.0,19.9,61,29.73,10.0,SW,5.8,-,N/A,,Clear,220,2013-01-04 20:53:00
4:53 PM,32.0,19.9,61,29.73,10.0,SW,3.5,-,N/A,,Clear,230,2013-01-04 21:53:00
5:53 PM,32.0,19.9,61,29.74,10.0,SW,5.8,-,N/A,,Partly Cloudy,230,2013-01-04 22:53:00
6:53 PM,33.1,21.0,61,29.75,10.0,WSW,6.9,-,N/A,,Overcast,240,2013-01-04 23:53:00
7:53 PM,34.0,21.0,59,29.75,10.0,WSW,5.8,-,N/A,,Overcast,240,2013-01-05 00:53:00
8:53 PM,34.0,21.9,61,29.75,10.0,WSW,5.8,-,N/A,,Overcast,240,2013-01-05 01:53:00
9:53 PM,34.0,21.9,61,29.75,10.0,Variable,5.8,-,N/A,,Overcast,0,2013-01-05 02:53:00
10:53 PM,33.1,21.9,64,29.75,10.0,WSW,4.6,-,N/A,,Overcast,240,2013-01-05 03:53:00
11:53 PM,33.1,21.9,64,29.74,10.0,Variable,3.5,-,N/A,,Mostly Cloudy,0,2013-01-05 04:53:00